To NAV CANADA Home Page Login to a new session Search on AWWS site Disclaimer Vers la page française équivalente Tips FAQ What's new on the site To the Forecasts and Observations / NOTAM section To "File a Flight Plan" website Publications and other links Update of the User's profile FIC Telephone Numbers My Weather Data Folder Route Weather Data Regional Weather Data Local Weather Data To the Forecasts and Observations / NOTAM section
Request Generated 06/15/2019 at 23:21:56 UTC . Weather information available at that time is displayed.

METAR/TAF

FLIN FLON/MB    (show WxCam)

METAR CYFO 152300Z 18008KT 15SM SCT140 BKN240 18/03 A2996 RMK AC3CI3 LAST OBS/NEXT 161100UTC SLP153 DENSITY ALT 1600FT=
METAR CYFO 152200Z 20005KT 15SM SCT140 BKN240 17/03 A2996 RMK AC3CI3 SLP156 DENSITY ALT 1500FT=
METAR CYFO 152100Z 17007G15KT 070V190 15SM SCT160 BKN250 18/01 A2996 RMK AC3CI3 SLP155 DENSITY ALT 1500FT=

CYFO - No TAF is issued for this station

Your time UTC time
Weather data provided by Environment Canada and NAV CANADA